Time,TemperatureF,DewpointF,PressureIn,WindDirection,WindDirectionDegrees,WindSpeedMPH,WindSpeedGustMPH,Humidity,HourlyPrecipIn,Conditions,Clouds,dailyrainin,SoftwareType,DateUTC
2013-02-14 00:03:00,37.9,32.3,29.58,WNW,297,3.0,9.0,80,0.00,,,0.00,Wunderground v.1.15,2013-02-14 06:03:00,
2013-02-14 00:09:00,37.7,32.4,29.58,NW,311,3.0,9.0,81,0.00,,,0.00,Wunderground v.1.15,2013-02-14 06:09:00,
2013-02-14 00:15:00,37.5,32.5,29.58,WSW,245,3.0,9.0,82,0.00,,,0.00,Wunderground v.1.15,2013-02-14 06:15:00,
2013-02-14 00:22:00,37.5,32.5,29.58,NW,307,4.0,9.0,82,0.00,,,0.00,Wunderground v.1.15,2013-02-14 06:22:00,
2013-02-14 00:27:00,37.6,32.6,29.58,NW,305,4.0,9.0,82,0.00,,,0.00,Wunderground v.1.15,2013-02-14 06:27:00,
2013-02-14 00:33:00,37.7,32.7,29.58,WSW,245,5.0,9.0,82,0.00,,,0.00,Wunderground v.1.15,2013-02-14 06:33:00,
2013-02-14 00:40:00,37.7,32.7,29.58,WNW,298,4.0,9.0,82,0.00,,,0.00,Wunderground v.1.15,2013-02-14 06:40:00,
2013-02-14 00:45:00,37.7,33.0,29.59,WNW,286,5.0,9.0,83,0.00,,,0.00,Wunderground v.1.15,2013-02-14 06:45:00,
2013-02-14 00:51:00,37.4,32.7,29.58,NW,309,4.0,9.0,83,0.00,,,0.00,Wunderground v.1.15,2013-02-14 06:51:00,
2013-02-14 00:57:00,37.3,32.9,29.58,WNW,291,4.0,9.0,84,0.00,,,0.00,Wunderground v.1.15,2013-02-14 06:57:00,
2013-02-14 01:03:00,37.1,32.7,29.59,WNW,302,4.0,9.0,84,0.00,,,0.00,Wunderground v.1.15,2013-02-14 07:03:00,
2013-02-14 01:09:00,36.9,32.5,29.59,WNW,295,4.0,4.0,84,0.00,,,0.00,Wunderground v.1.15,2013-02-14 07:09:00,
2013-02-14 01:15:00,36.7,32.6,29.58,NW,311,4.0,9.0,85,0.00,,,0.00,Wunderground v.1.15,2013-02-14 07:15:00,
2013-02-14 01:21:00,36.6,32.5,29.59,WNW,283,4.0,6.0,85,0.00,,,0.00,Wunderground v.1.15,2013-02-14 07:21:00,
2013-02-14 01:27:00,36.4,32.3,29.59,NW,319,4.0,9.0,85,0.00,,,0.00,Wunderground v.1.15,2013-02-14 07:27:00,
2013-02-14 01:33:00,36.2,32.4,29.59,WSW,245,4.0,9.0,86,0.00,,,0.00,Wunderground v.1.15,2013-02-14 07:33:00,
2013-02-14 01:39:00,36.0,32.5,29.59,WSW,249,4.0,9.0,87,0.00,,,0.00,Wunderground v.1.15,2013-02-14 07:39:00,
2013-02-14 01:45:00,35.9,32.4,29.59,WNW,284,4.0,9.0,87,0.00,,,0.00,Wunderground v.1.15,2013-02-14 07:45:00,
2013-02-14 01:51:00,35.8,32.3,29.59,West,259,4.0,9.0,87,0.00,,,0.00,Wunderground v.1.15,2013-02-14 07:51:00,
2013-02-14 01:58:00,36.0,32.5,29.59,WSW,257,4.0,9.0,87,0.00,,,0.00,Wunderground v.1.15,2013-02-14 07:58:00,
2013-02-14 02:03:00,36.2,32.4,29.59,WNW,302,4.0,9.0,86,0.00,,,0.00,Wunderground v.1.15,2013-02-14 08:03:00,
2013-02-14 02:09:00,36.4,32.6,29.59,West,276,4.0,9.0,86,0.00,,,0.00,Wunderground v.1.15,2013-02-14 08:09:00,
2013-02-14 02:15:00,36.4,32.6,29.59,WNW,286,4.0,9.0,86,0.00,,,0.00,Wunderground v.1.15,2013-02-14 08:15:00,
2013-02-14 02:21:00,36.4,32.6,29.59,WSW,243,5.0,9.0,86,0.00,,,0.00,Wunderground v.1.15,2013-02-14 08:21:00,
2013-02-14 02:27:00,36.4,32.6,29.59,WNW,287,5.0,9.0,86,0.00,,,0.00,Wunderground v.1.15,2013-02-14 08:27:00,
2013-02-14 02:34:00,36.3,32.5,29.59,WNW,295,3.0,9.0,86,0.00,,,0.00,Wunderground v.1.15,2013-02-14 08:34:00,
2013-02-14 02:39:00,36.4,32.3,29.59,NW,318,4.0,4.0,85,0.00,,,0.00,Wunderground v.1.15,2013-02-14 08:39:00,
2013-02-14 02:45:00,36.5,32.4,29.59,WNW,298,4.0,9.0,85,0.00,,,0.00,Wunderground v.1.15,2013-02-14 08:45:00,
2013-02-14 02:51:00,36.5,32.4,29.59,NW,305,4.0,9.0,85,0.00,,,0.00,Wunderground v.1.15,2013-02-14 08:51:00,
2013-02-14 02:57:00,36.5,32.1,29.59,West,276,4.0,14.0,84,0.00,,,0.00,Wunderground v.1.15,2013-02-14 08:57:00,
2013-02-14 03:03:00,36.4,32.3,29.59,West,272,4.0,9.0,85,0.00,,,0.00,Wunderground v.1.15,2013-02-14 09:03:00,
2013-02-14 03:09:00,36.4,32.3,29.59,WSW,240,4.0,9.0,85,0.00,,,0.00,Wunderground v.1.15,2013-02-14 09:09:00,
2013-02-14 03:15:00,36.3,32.2,29.59,NW,321,4.0,9.0,85,0.00,,,0.00,Wunderground v.1.15,2013-02-14 09:15:00,
2013-02-14 03:21:00,36.3,32.2,29.59,West,260,4.0,6.0,85,0.00,,,0.00,Wunderground v.1.15,2013-02-14 09:21:00,
2013-02-14 03:27:00,36.3,32.2,29.59,West,272,4.0,9.0,85,0.00,,,0.00,Wunderground v.1.15,2013-02-14 09:27:00,
2013-02-14 03:33:00,36.4,32.3,29.59,West,274,5.0,9.0,85,0.00,,,0.00,Wunderground v.1.15,2013-02-14 09:33:00,
2013-02-14 03:39:00,36.4,32.0,29.59,NW,304,6.0,9.0,84,0.00,,,0.00,Wunderground v.1.15,2013-02-14 09:39:00,
2013-02-14 03:45:00,36.4,32.0,29.60,NW,308,6.0,12.0,84,0.00,,,0.00,Wunderground v.1.15,2013-02-14 09:45:00,
2013-02-14 03:51:00,36.3,31.6,29.60,West,267,6.0,11.0,83,0.00,,,0.00,Wunderground v.1.15,2013-02-14 09:51:00,
2013-02-14 03:57:00,36.1,31.1,29.60,WNW,293,6.0,13.0,82,0.00,,,0.00,Wunderground v.1.15,2013-02-14 09:57:00,
2013-02-14 04:03:00,35.9,30.9,29.60,WNW,295,6.0,9.0,82,0.00,,,0.00,Wunderground v.1.15,2013-02-14 10:03:00,
2013-02-14 04:09:00,35.7,30.7,29.60,NW,316,7.0,7.0,82,0.00,,,0.00,Wunderground v.1.15,2013-02-14 10:09:00,
2013-02-14 04:15:00,35.4,30.5,29.61,NW,309,6.0,9.0,82,0.00,,,0.00,Wunderground v.1.15,2013-02-14 10:15:00,
2013-02-14 04:21:00,35.3,30.4,29.61,WSW,254,5.0,9.0,82,0.00,,,0.00,Wunderground v.1.15,2013-02-14 10:21:00,
2013-02-14 04:27:00,35.2,30.0,29.61,NW,312,5.0,9.0,81,0.00,,,0.00,Wunderground v.1.15,2013-02-14 10:27:00,
2013-02-14 04:33:00,35.1,30.2,29.61,NW,311,5.0,11.0,82,0.00,,,0.00,Wunderground v.1.15,2013-02-14 10:33:00,
2013-02-14 04:39:00,35.1,30.2,29.62,WNW,297,6.0,9.0,82,0.00,,,0.00,Wunderground v.1.15,2013-02-14 10:39:00,
2013-02-14 04:45:00,34.9,30.3,29.62,NW,315,7.0,9.0,83,0.00,,,0.00,Wunderground v.1.15,2013-02-14 10:45:00,
2013-02-14 04:51:00,34.8,30.5,29.62,WNW,288,7.0,9.0,84,0.00,,,0.00,Wunderground v.1.15,2013-02-14 10:51:00,
2013-02-14 04:57:00,34.7,30.1,29.63,WNW,295,6.0,9.0,83,0.00,,,0.00,Wunderground v.1.15,2013-02-14 10:57:00,
2013-02-14 05:03:00,34.6,30.3,29.63,WNW,301,6.0,9.0,84,0.00,,,0.00,Wunderground v.1.15,2013-02-14 11:03:00,
2013-02-14 05:09:00,34.5,30.2,29.64,WSW,255,5.0,5.0,84,0.00,,,0.00,Wunderground v.1.15,2013-02-14 11:09:00,
2013-02-14 05:15:00,34.3,30.0,29.64,West,267,6.0,9.0,84,0.00,,,0.00,Wunderground v.1.15,2013-02-14 11:15:00,
2013-02-14 05:21:00,34.2,29.9,29.64,WNW,287,7.0,9.0,84,0.00,,,0.00,Wunderground v.1.15,2013-02-14 11:21:00,
2013-02-14 05:27:00,34.1,29.8,29.64,WNW,295,6.0,9.0,84,0.00,,,0.00,Wunderground v.1.15,2013-02-14 11:27:00,
2013-02-14 05:33:00,34.1,29.8,29.65,West,265,5.0,9.0,84,0.00,,,0.00,Wunderground v.1.15,2013-02-14 11:33:00,
2013-02-14 05:39:00,34.0,30.0,29.65,NNW,330,5.0,5.0,85,0.00,,,0.00,Wunderground v.1.15,2013-02-14 11:39:00,
2013-02-14 05:45:00,34.0,30.3,29.65,WNW,297,5.0,9.0,86,0.00,,,0.00,Wunderground v.1.15,2013-02-14 11:45:00,
2013-02-14 05:51:00,34.0,30.3,29.65,NW,322,5.0,9.0,86,0.00,,,0.00,Wunderground v.1.15,2013-02-14 11:51:00,
2013-02-14 05:57:00,34.2,30.2,29.65,West,276,6.0,9.0,85,0.00,,,0.00,Wunderground v.1.15,2013-02-14 11:57:00,
2013-02-14 06:03:00,34.3,30.3,29.66,North,352,6.0,9.0,85,0.00,,,0.00,Wunderground v.1.15,2013-02-14 12:03:00,
2013-02-14 06:09:00,34.5,30.2,29.66,WNW,300,6.0,6.0,84,0.00,,,0.00,Wunderground v.1.15,2013-02-14 12:09:00,
2013-02-14 06:15:00,34.5,30.2,29.66,NW,307,6.0,10.0,84,0.00,,,0.00,Wunderground v.1.15,2013-02-14 12:15:00,
2013-02-14 06:21:00,34.6,30.3,29.67,NW,321,6.0,9.0,84,0.00,,,0.00,Wunderground v.1.15,2013-02-14 12:21:00,
2013-02-14 06:27:00,34.7,30.4,29.67,NW,326,6.0,9.0,84,0.00,,,0.00,Wunderground v.1.15,2013-02-14 12:27:00,
2013-02-14 06:33:00,34.7,30.7,29.67,NW,313,5.0,9.0,85,0.00,,,0.00,Wunderground v.1.15,2013-02-14 12:33:00,
2013-02-14 06:39:00,34.7,30.7,29.68,WSW,248,5.0,9.0,85,0.00,,,0.00,Wunderground v.1.15,2013-02-14 12:39:00,
2013-02-14 06:45:00,34.6,30.3,29.68,North,350,6.0,9.0,84,0.00,,,0.00,Wunderground v.1.15,2013-02-14 12:45:00,
2013-02-14 06:51:00,34.7,30.4,29.68,WNW,287,6.0,9.0,84,0.00,,,0.00,Wunderground v.1.15,2013-02-14 12:51:00,
2013-02-14 06:57:00,34.6,30.0,29.69,NNW,341,6.0,9.0,83,0.00,,,0.00,Wunderground v.1.15,2013-02-14 12:57:00,
2013-02-14 07:03:00,34.6,30.0,29.69,WNW,283,6.0,9.0,83,0.00,,,0.00,Wunderground v.1.15,2013-02-14 13:03:00,
2013-02-14 07:09:00,34.6,30.0,29.70,NW,309,5.0,5.0,83,0.00,,,0.00,Wunderground v.1.15,2013-02-14 13:09:00,
2013-02-14 07:15:00,34.6,30.0,29.70,NW,319,6.0,10.0,83,0.00,,,0.00,Wunderground v.1.15,2013-02-14 13:15:00,
2013-02-14 07:21:00,34.6,29.7,29.70,NNW,341,7.0,10.0,82,0.00,,,0.00,Wunderground v.1.15,2013-02-14 13:21:00,
2013-02-14 07:27:00,34.6,29.7,29.70,NW,326,7.0,10.0,82,0.00,,,0.00,Wunderground v.1.15,2013-02-14 13:27:00,
2013-02-14 07:33:00,34.6,30.0,29.71,West,281,6.0,9.0,83,0.00,,,0.00,Wunderground v.1.15,2013-02-14 13:33:00,
2013-02-14 07:39:00,34.6,30.3,29.72,NW,323,5.0,9.0,84,0.00,,,0.00,Wunderground v.1.15,2013-02-14 13:39:00,
2013-02-14 07:45:00,34.5,30.2,29.72,NW,323,5.0,10.0,84,0.00,,,0.00,Wunderground v.1.15,2013-02-14 13:45:00,
2013-02-14 07:51:00,34.5,30.2,29.72,NW,326,6.0,9.0,84,0.00,,,0.00,Wunderground v.1.15,2013-02-14 13:51:00,
2013-02-14 07:57:00,34.5,29.9,29.73,NW,311,6.0,10.0,83,0.00,,,0.00,Wunderground v.1.15,2013-02-14 13:57:00,
2013-02-14 08:03:00,34.5,29.9,29.74,NW,308,6.0,9.0,83,0.00,,,0.00,Wunderground v.1.15,2013-02-14 14:03:00,
2013-02-14 08:09:00,34.5,29.6,29.74,NW,320,5.0,5.0,82,0.00,,,0.00,Wunderground v.1.15,2013-02-14 14:09:00,
2013-02-14 08:15:00,34.6,29.7,29.74,NNW,337,6.0,9.0,82,0.00,,,0.00,Wunderground v.1.15,2013-02-14 14:15:00,
2013-02-14 08:21:00,34.6,29.4,29.75,NW,309,6.0,9.0,81,0.00,,,0.00,Wunderground v.1.15,2013-02-14 14:21:00,
2013-02-14 08:27:00,34.6,29.4,29.75,NW,315,5.0,9.0,81,0.00,,,0.00,Wunderground v.1.15,2013-02-14 14:27:00,
2013-02-14 08:33:00,34.6,29.4,29.76,NNW,343,5.0,9.0,81,0.00,,,0.00,Wunderground v.1.15,2013-02-14 14:33:00,
2013-02-14 08:39:00,34.7,29.5,29.76,NW,304,4.0,9.0,81,0.00,,,0.00,Wunderground v.1.15,2013-02-14 14:39:00,
2013-02-14 08:45:00,34.7,29.5,29.76,NW,315,4.0,9.0,81,0.00,,,0.00,Wunderground v.1.15,2013-02-14 14:45:00,
2013-02-14 08:51:00,34.6,29.1,29.76,NW,311,5.0,9.0,80,0.00,,,0.00,Wunderground v.1.15,2013-02-14 14:51:00,
2013-02-14 08:57:00,34.7,29.2,29.76,NNE,26,6.0,9.0,80,0.00,,,0.00,Wunderground v.1.15,2013-02-14 14:57:00,
2013-02-14 09:03:00,34.8,29.3,29.76,NW,323,6.0,9.0,80,0.00,,,0.00,Wunderground v.1.15,2013-02-14 15:03:00,
2013-02-14 09:09:00,35.1,29.2,29.77,NW,306,4.0,9.0,79,0.00,,,0.00,Wunderground v.1.15,2013-02-14 15:09:00,
2013-02-14 09:15:00,35.5,29.6,29.77,WNW,284,4.0,9.0,79,0.00,,,0.00,Wunderground v.1.15,2013-02-14 15:15:00,
2013-02-14 09:21:00,35.6,29.7,29.77,NNW,328,5.0,9.0,79,0.00,,,0.00,Wunderground v.1.15,2013-02-14 15:21:00,
2013-02-14 09:27:00,35.3,29.1,29.78,NW,309,6.0,9.0,78,0.00,,,0.00,Wunderground v.1.15,2013-02-14 15:27:00,
2013-02-14 09:33:00,35.2,29.0,29.79,NW,321,5.0,9.0,78,0.00,,,0.00,Wunderground v.1.15,2013-02-14 15:33:00,
2013-02-14 09:39:00,35.1,28.3,29.78,NW,323,6.0,9.0,76,0.00,,,0.00,Wunderground v.1.15,2013-02-14 15:39:00,
2013-02-14 09:45:00,35.1,28.3,29.78,NW,309,6.0,9.0,76,0.00,,,0.00,Wunderground v.1.15,2013-02-14 15:45:00,
2013-02-14 09:51:00,35.3,28.5,29.79,NW,325,6.0,9.0,76,0.00,,,0.00,Wunderground v.1.15,2013-02-14 15:51:00,
2013-02-14 09:57:00,35.6,28.5,29.79,NW,311,5.0,9.0,75,0.00,,,0.00,Wunderground v.1.15,2013-02-14 15:57:00,
2013-02-14 10:03:00,35.9,28.4,29.79,WNW,295,5.0,9.0,74,0.00,,,0.00,Wunderground v.1.15,2013-02-14 16:03:00,
2013-02-14 10:09:00,35.6,28.1,29.79,NW,311,5.0,5.0,74,0.00,,,0.00,Wunderground v.1.15,2013-02-14 16:09:00,
2013-02-14 10:15:00,36.0,28.8,29.80,NW,322,4.0,9.0,75,0.00,,,0.00,Wunderground v.1.15,2013-02-14 16:15:00,
2013-02-14 10:21:00,36.5,29.0,29.80,WSW,248,3.0,9.0,74,0.00,,,0.00,Wunderground v.1.15,2013-02-14 16:21:00,
2013-02-14 10:27:00,36.4,28.2,29.81,West,260,4.0,9.0,72,0.00,,,0.00,Wunderground v.1.15,2013-02-14 16:27:00,
2013-02-14 10:33:00,36.2,28.4,29.81,NW,318,4.0,9.0,73,0.00,,,0.00,Wunderground v.1.15,2013-02-14 16:33:00,
2013-02-14 10:39:00,36.8,29.0,29.81,NW,315,4.0,4.0,73,0.00,,,0.00,Wunderground v.1.15,2013-02-14 16:39:00,
2013-02-14 10:45:00,36.9,28.4,29.82,NW,326,4.0,9.0,71,0.00,,,0.00,Wunderground v.1.15,2013-02-14 16:45:00,
2013-02-14 10:51:00,36.8,27.9,29.81,WNW,293,5.0,9.0,70,0.00,,,0.00,Wunderground v.1.15,2013-02-14 16:51:00,
2013-02-14 10:57:00,37.0,28.5,29.82,WNW,302,4.0,9.0,71,0.00,,,0.00,Wunderground v.1.15,2013-02-14 16:57:00,
2013-02-14 11:03:00,37.5,28.6,29.82,West,276,4.0,9.0,70,0.00,,,0.00,Wunderground v.1.15,2013-02-14 17:03:00,
2013-02-14 11:09:00,37.3,28.4,29.82,WNW,297,4.0,4.0,70,0.00,,,0.00,Wunderground v.1.15,2013-02-14 17:09:00,
2013-02-14 11:15:00,37.0,28.8,29.82,WNW,287,4.0,9.0,72,0.00,,,0.00,Wunderground v.1.15,2013-02-14 17:15:00,
2013-02-14 11:21:00,37.2,28.3,29.82,NW,311,4.0,9.0,70,0.00,,,0.00,Wunderground v.1.15,2013-02-14 17:21:00,
2013-02-14 11:27:00,37.3,27.7,29.82,North,350,5.0,9.0,68,0.00,,,0.00,Wunderground v.1.15,2013-02-14 17:27:00,
2013-02-14 11:33:00,37.3,27.7,29.82,NW,314,5.0,9.0,68,0.00,,,0.00,Wunderground v.1.15,2013-02-14 17:33:00,
2013-02-14 11:39:00,37.9,27.5,29.82,WNW,284,5.0,5.0,66,0.00,,,0.00,Wunderground v.1.15,2013-02-14 17:39:00,
2013-02-14 11:45:00,37.7,27.7,29.82,NW,313,4.0,9.0,67,0.00,,,0.00,Wunderground v.1.15,2013-02-14 17:45:00,
2013-02-14 11:51:00,37.7,28.8,29.82,NW,311,3.0,5.0,70,0.00,,,0.00,Wunderground v.1.15,2013-02-14 17:51:00,
2013-02-14 11:57:00,38.3,28.7,29.82,NW,315,4.0,9.0,68,0.00,,,0.00,Wunderground v.1.15,2013-02-14 17:57:00,
2013-02-14 12:03:00,38.1,27.4,29.82,WNW,295,4.0,9.0,65,0.00,,,0.00,Wunderground v.1.15,2013-02-14 18:03:00,
2013-02-14 12:09:00,38.1,28.5,29.82,West,271,4.0,9.0,68,0.00,,,0.00,Wunderground v.1.15,2013-02-14 18:09:00,
2013-02-14 12:15:00,38.2,28.6,29.82,NNW,337,4.0,9.0,68,0.00,,,0.00,Wunderground v.1.15,2013-02-14 18:15:00,
2013-02-14 12:21:00,38.6,27.8,29.82,WNW,297,4.0,9.0,65,0.00,,,0.00,Wunderground v.1.15,2013-02-14 18:21:00,
2013-02-14 12:27:00,38.9,28.1,29.82,WNW,284,4.0,9.0,65,0.00,,,0.00,Wunderground v.1.15,2013-02-14 18:27:00,
2013-02-14 12:33:00,39.3,28.9,29.82,WNW,297,3.0,10.0,66,0.00,,,0.00,Wunderground v.1.15,2013-02-14 18:33:00,
2013-02-14 12:39:00,39.7,28.5,29.82,WSW,257,3.0,9.0,64,0.00,,,0.00,Wunderground v.1.15,2013-02-14 18:39:00,
2013-02-14 12:45:00,39.5,27.2,29.82,WNW,302,4.0,9.0,61,0.00,,,0.00,Wunderground v.1.15,2013-02-14 18:45:00,
2013-02-14 12:51:00,39.0,27.5,29.82,WNW,299,5.0,9.0,63,0.00,,,0.00,Wunderground v.1.15,2013-02-14 18:51:00,
2013-02-14 12:57:00,39.0,29.3,29.82,WNW,302,5.0,9.0,68,0.00,,,0.00,Wunderground v.1.15,2013-02-14 18:57:00,
2013-02-14 13:03:00,39.2,29.5,29.82,NNE,32,4.0,9.0,68,0.00,,,0.00,Wunderground v.1.15,2013-02-14 19:03:00,
2013-02-14 13:09:00,38.8,28.8,29.82,NW,323,5.0,5.0,67,0.00,,,0.00,Wunderground v.1.15,2013-02-14 19:09:00,
2013-02-14 13:15:00,38.8,29.1,29.82,NW,321,4.0,9.0,68,0.00,,,0.00,Wunderground v.1.15,2013-02-14 19:15:00,
2013-02-14 13:21:00,38.6,28.6,29.82,SW,233,5.0,9.0,67,0.00,,,0.00,Wunderground v.1.15,2013-02-14 19:21:00,
2013-02-14 13:27:00,38.5,28.9,29.83,NNW,329,5.0,9.0,68,0.00,,,0.00,Wunderground v.1.15,2013-02-14 19:27:00,
2013-02-14 13:33:00,38.0,29.1,29.83,NW,323,5.0,9.0,70,0.00,,,0.00,Wunderground v.1.15,2013-02-14 19:33:00,
2013-02-14 13:39:00,37.8,28.9,29.83,West,280,5.0,5.0,70,0.00,,,0.00,Wunderground v.1.15,2013-02-14 19:39:00,
2013-02-14 13:45:00,37.7,29.1,29.83,WNW,290,5.0,9.0,71,0.00,,,0.00,Wunderground v.1.15,2013-02-14 19:45:00,
2013-02-14 13:51:00,37.7,29.1,29.83,WSW,250,5.0,9.0,71,0.00,,,0.00,Wunderground v.1.15,2013-02-14 19:51:00,
2013-02-14 13:57:00,37.8,29.2,29.83,WNW,297,5.0,9.0,71,0.00,,,0.00,Wunderground v.1.15,2013-02-14 19:57:00,
2013-02-14 14:03:00,38.1,28.8,29.83,NW,315,5.0,9.0,69,0.00,,,0.00,Wunderground v.1.15,2013-02-14 20:03:00,
2013-02-14 14:09:00,38.3,28.7,29.83,WNW,290,5.0,9.0,68,0.00,,,0.00,Wunderground v.1.15,2013-02-14 20:09:00,
2013-02-14 14:15:00,38.2,28.2,29.84,WNW,294,5.0,9.0,67,0.00,,,0.00,Wunderground v.1.15,2013-02-14 20:15:00,
2013-02-14 14:21:00,37.8,27.1,29.84,WSW,246,5.0,9.0,65,0.00,,,0.00,Wunderground v.1.15,2013-02-14 20:21:00,
2013-02-14 14:27:00,37.5,28.2,29.84,West,269,5.0,9.0,69,0.00,,,0.00,Wunderground v.1.15,2013-02-14 20:27:00,
2013-02-14 14:33:00,37.5,28.9,29.84,WNW,290,4.0,9.0,71,0.00,,,0.00,Wunderground v.1.15,2013-02-14 20:33:00,
2013-02-14 14:39:00,37.4,28.2,29.84,WNW,302,4.0,4.0,69,0.00,,,0.00,Wunderground v.1.15,2013-02-14 20:39:00,
2013-02-14 14:45:00,37.3,28.8,29.84,NW,316,4.0,9.0,71,0.00,,,0.00,Wunderground v.1.15,2013-02-14 20:45:00,
2013-02-14 14:51:00,37.1,29.9,29.85,West,276,4.0,5.0,75,0.00,,,0.00,Wunderground v.1.15,2013-02-14 20:51:00,
2013-02-14 14:57:00,36.5,30.3,29.85,West,279,5.0,9.0,78,0.00,,,0.00,Wunderground v.1.15,2013-02-14 20:57:00,
2013-02-14 15:03:00,36.1,30.2,29.86,West,278,4.0,9.0,79,0.00,,,0.00,Wunderground v.1.15,2013-02-14 21:03:00,
2013-02-14 15:09:00,35.6,30.3,29.86,WNW,290,4.0,9.0,81,0.00,,,0.00,Wunderground v.1.15,2013-02-14 21:09:00,
2013-02-14 15:15:00,35.3,30.4,29.86,WNW,301,4.0,9.0,82,0.00,,,0.00,Wunderground v.1.15,2013-02-14 21:15:00,
2013-02-14 15:21:00,35.4,30.1,29.86,West,260,2.0,9.0,81,0.00,,,0.00,Wunderground v.1.15,2013-02-14 21:21:00,
2013-02-14 15:27:00,35.3,29.7,29.86,NW,305,3.0,9.0,80,0.00,,,0.00,Wunderground v.1.15,2013-02-14 21:27:00,
2013-02-14 15:33:00,35.2,29.0,29.87,West,264,3.0,9.0,78,0.00,,,0.00,Wunderground v.1.15,2013-02-14 21:33:00,
2013-02-14 15:39:00,35.3,28.8,29.87,West,280,3.0,9.0,77,0.00,,,0.00,Wunderground v.1.15,2013-02-14 21:39:00,
2013-02-14 15:45:00,35.3,28.5,29.87,West,270,3.0,9.0,76,0.00,,,0.00,Wunderground v.1.15,2013-02-14 21:45:00,
2013-02-14 15:51:00,35.2,27.7,29.88,West,281,3.0,9.0,74,0.00,,,0.00,Wunderground v.1.15,2013-02-14 21:51:00,
2013-02-14 15:57:00,35.0,28.5,29.88,NW,316,3.0,9.0,77,0.00,,,0.00,Wunderground v.1.15,2013-02-14 21:57:00,
2013-02-14 16:03:00,34.6,29.1,29.88,WNW,287,3.0,11.0,80,0.00,,,0.00,Wunderground v.1.15,2013-02-14 22:03:00,
2013-02-14 16:09:00,33.9,29.9,29.88,WNW,294,3.0,3.0,85,0.00,,,0.00,Wunderground v.1.15,2013-02-14 22:09:00,
2013-02-14 16:15:00,33.2,30.3,29.89,WNW,285,3.0,9.0,89,0.00,,,0.00,Wunderground v.1.15,2013-02-14 22:15:00,
2013-02-14 16:21:00,32.8,30.2,29.89,WNW,295,3.0,9.0,90,0.00,,,0.00,Wunderground v.1.15,2013-02-14 22:21:00,
2013-02-14 16:27:00,32.7,30.6,29.89,West,277,3.0,9.0,92,0.00,,,0.00,Wunderground v.1.15,2013-02-14 22:27:00,
2013-02-14 16:33:00,32.7,30.6,29.89,WNW,287,2.0,9.0,92,0.00,,,0.00,Wunderground v.1.15,2013-02-14 22:33:00,
2013-02-14 16:39:00,32.6,30.8,29.90,NW,319,1.0,9.0,93,0.00,,,0.00,Wunderground v.1.15,2013-02-14 22:39:00,
2013-02-14 16:45:00,32.3,30.5,29.90,NW,316,2.0,9.0,93,0.00,,,0.00,Wunderground v.1.15,2013-02-14 22:45:00,
2013-02-14 16:51:00,32.1,30.3,29.90,WNW,302,1.0,9.0,93,0.00,,,0.00,Wunderground v.1.15,2013-02-14 22:51:00,
2013-02-14 16:57:00,32.0,30.5,29.90,WNW,293,1.0,9.0,94,0.00,,,0.00,Wunderground v.1.15,2013-02-14 22:57:00,
2013-02-14 17:03:00,31.9,30.4,29.91,NW,315,1.0,9.0,94,0.00,,,0.00,Wunderground v.1.15,2013-02-14 23:03:00,
2013-02-14 17:09:00,31.7,30.2,29.91,WSW,255,1.0,9.0,94,0.00,,,0.00,Wunderground v.1.15,2013-02-14 23:09:00,
2013-02-14 17:15:00,31.7,30.4,29.91,West,278,1.0,9.0,95,0.00,,,0.00,Wunderground v.1.15,2013-02-14 23:15:00,
2013-02-14 17:21:00,31.6,30.3,29.91,NW,326,1.0,9.0,95,0.00,,,0.00,Wunderground v.1.15,2013-02-14 23:21:00,
2013-02-14 17:27:00,31.4,30.1,29.92,NW,325,1.0,9.0,95,0.00,,,0.00,Wunderground v.1.15,2013-02-14 23:27:00,
2013-02-14 17:33:00,31.2,29.7,29.92,NW,305,2.0,9.0,94,0.00,,,0.00,Wunderground v.1.15,2013-02-14 23:33:00,
2013-02-14 17:39:00,30.9,29.4,29.92,WNW,293,2.0,2.0,94,0.00,,,0.00,Wunderground v.1.15,2013-02-14 23:39:00,
2013-02-14 17:45:00,30.7,29.2,29.92,West,270,2.0,9.0,94,0.00,,,0.00,Wunderground v.1.15,2013-02-14 23:45:00,
2013-02-14 17:51:00,30.5,29.0,29.92,WNW,293,1.0,9.0,94,0.00,,,0.00,Wunderground v.1.15,2013-02-14 23:51:00,
2013-02-14 17:57:00,30.4,28.6,29.93,NNW,340,1.0,9.0,93,0.00,,,0.00,Wunderground v.1.15,2013-02-14 23:57:00,
2013-02-14 18:03:00,30.2,28.4,29.93,NW,307,1.0,9.0,93,0.00,,,0.00,Wunderground v.1.15,2013-02-15 00:03:00,
2013-02-14 18:09:00,30.1,28.3,29.94,WNW,295,1.0,1.0,93,0.00,,,0.00,Wunderground v.1.15,2013-02-15 00:09:00,
2013-02-14 18:15:00,30.0,28.2,29.94,WNW,297,1.0,9.0,93,0.00,,,0.00,Wunderground v.1.15,2013-02-15 00:15:00,
2013-02-14 18:21:00,29.8,28.0,29.94,WNW,293,1.0,9.0,93,0.00,,,0.00,Wunderground v.1.15,2013-02-15 00:21:00,
2013-02-14 18:27:00,29.7,27.9,29.95,NW,311,0.0,9.0,93,0.00,,,0.00,Wunderground v.1.15,2013-02-15 00:27:00,
2013-02-14 18:33:00,29.6,28.1,29.95,NW,307,1.0,9.0,94,0.00,,,0.00,Wunderground v.1.15,2013-02-15 00:33:00,
2013-02-14 18:39:00,29.6,28.1,29.95,NW,307,1.0,9.0,94,0.00,,,0.00,Wunderground v.1.15,2013-02-15 00:39:00,
2013-02-14 18:45:00,29.6,28.1,29.95,West,260,1.0,9.0,94,0.00,,,0.00,Wunderground v.1.15,2013-02-15 00:45:00,
2013-02-14 18:51:00,29.5,27.7,29.96,NW,311,1.0,9.0,93,0.00,,,0.00,Wunderground v.1.15,2013-02-15 00:51:00,
2013-02-14 18:57:00,29.5,27.7,29.96,NW,304,1.0,9.0,93,0.00,,,0.00,Wunderground v.1.15,2013-02-15 00:57:00,
2013-02-14 19:03:00,29.4,27.4,29.96,NW,323,1.0,9.0,92,0.00,,,0.00,Wunderground v.1.15,2013-02-15 01:03:00,
2013-02-14 19:09:00,29.6,27.3,29.97,NW,311,2.0,2.0,91,0.00,,,0.00,Wunderground v.1.15,2013-02-15 01:09:00,
2013-02-14 19:15:00,29.4,26.8,29.96,NW,318,2.0,9.0,90,0.00,,,0.00,Wunderground v.1.15,2013-02-15 01:15:00,
2013-02-14 19:21:00,29.5,26.7,29.97,WNW,297,2.0,9.0,89,0.00,,,0.00,Wunderground v.1.15,2013-02-15 01:21:00,
2013-02-14 19:27:00,29.5,26.4,29.97,NW,307,2.0,9.0,88,0.00,,,0.00,Wunderground v.1.15,2013-02-15 01:27:00,
2013-02-14 19:33:00,29.5,26.4,29.97,WNW,298,2.0,9.0,88,0.00,,,0.00,Wunderground v.1.15,2013-02-15 01:33:00,
2013-02-14 19:39:00,29.4,26.0,29.97,NW,318,2.0,9.0,87,0.00,,,0.00,Wunderground v.1.15,2013-02-15 01:39:00,
2013-02-14 19:45:00,29.6,26.2,29.97,NNW,332,2.0,9.0,87,0.00,,,0.00,Wunderground v.1.15,2013-02-15 01:45:00,
2013-02-14 19:51:00,29.6,26.2,29.97,NW,326,2.0,9.0,87,0.00,,,0.00,Wunderground v.1.15,2013-02-15 01:51:00,
2013-02-14 19:57:00,29.7,26.3,29.98,NW,311,2.0,9.0,87,0.00,,,0.00,Wunderground v.1.15,2013-02-15 01:57:00,
2013-02-14 20:03:00,29.8,26.4,29.98,NNW,328,1.0,9.0,87,0.00,,,0.00,Wunderground v.1.15,2013-02-15 02:03:00,
2013-02-14 20:09:00,29.8,26.4,29.98,NW,321,1.0,9.0,87,0.00,,,0.00,Wunderground v.1.15,2013-02-15 02:09:00,
2013-02-14 20:15:00,29.8,25.8,29.98,NW,316,2.0,9.0,85,0.00,,,0.00,Wunderground v.1.15,2013-02-15 02:15:00,
2013-02-14 20:21:00,29.6,25.4,29.98,NW,306,4.0,9.0,84,0.00,,,0.00,Wunderground v.1.15,2013-02-15 02:21:00,
2013-02-14 20:27:00,29.4,24.9,29.98,NW,319,4.0,9.0,83,0.00,,,0.00,Wunderground v.1.15,2013-02-15 02:27:00,
2013-02-14 20:33:00,29.2,24.1,29.99,NW,307,5.0,11.0,81,0.00,,,0.00,Wunderground v.1.15,2013-02-15 02:33:00,
2013-02-14 20:39:00,28.9,23.8,29.99,NW,305,6.0,6.0,81,0.00,,,0.00,Wunderground v.1.15,2013-02-15 02:39:00,
2013-02-14 20:45:00,28.4,23.0,29.99,NW,304,6.0,9.0,80,0.00,,,0.00,Wunderground v.1.15,2013-02-15 02:45:00,
2013-02-14 20:51:00,28.1,22.4,30.00,NW,315,6.0,9.0,79,0.00,,,0.00,Wunderground v.1.15,2013-02-15 02:51:00,
2013-02-14 20:57:00,27.8,22.1,30.00,NNW,340,5.0,9.0,79,0.00,,,0.00,Wunderground v.1.15,2013-02-15 02:57:00,
2013-02-14 21:03:00,27.7,22.0,30.00,NW,307,5.0,9.0,79,0.00,,,0.00,Wunderground v.1.15,2013-02-15 03:03:00,
2013-02-14 21:09:00,27.5,22.1,30.01,NW,309,4.0,9.0,80,0.00,,,0.00,Wunderground v.1.15,2013-02-15 03:09:00,
2013-02-14 21:15:00,27.5,21.8,30.01,NW,311,5.0,9.0,79,0.00,,,0.00,Wunderground v.1.15,2013-02-15 03:15:00,
2013-02-14 21:21:00,27.4,21.1,30.02,NW,309,6.0,9.0,77,0.00,,,0.00,Wunderground v.1.15,2013-02-15 03:21:00,
2013-02-14 21:27:00,27.2,20.3,30.02,NW,321,6.0,9.0,75,0.00,,,0.00,Wunderground v.1.15,2013-02-15 03:27:00,
2013-02-14 21:33:00,26.8,19.0,30.02,North,354,7.0,15.0,72,0.00,,,0.00,Wunderground v.1.15,2013-02-15 03:33:00,
2013-02-14 21:39:00,26.5,18.7,30.02,NNW,336,7.0,7.0,72,0.00,,,0.00,Wunderground v.1.15,2013-02-15 03:39:00,
2013-02-14 21:45:00,26.2,18.1,30.03,NNW,328,6.0,9.0,71,0.00,,,0.00,Wunderground v.1.15,2013-02-15 03:45:00,
2013-02-14 21:51:00,25.9,17.1,30.03,NW,321,6.0,9.0,69,0.00,,,0.00,Wunderground v.1.15,2013-02-15 03:51:00,
2013-02-14 21:57:00,25.7,16.9,30.04,NW,307,6.0,9.0,69,0.00,,,0.00,Wunderground v.1.15,2013-02-15 03:57:00,
2013-02-14 22:03:00,25.5,17.1,30.04,NW,309,5.0,9.0,70,0.00,,,0.00,Wunderground v.1.15,2013-02-15 04:03:00,
2013-02-14 22:09:00,25.4,17.0,30.04,NW,318,5.0,5.0,70,0.00,,,0.00,Wunderground v.1.15,2013-02-15 04:09:00,
2013-02-14 22:15:00,25.1,17.0,30.05,NW,311,4.0,9.0,71,0.00,,,0.00,Wunderground v.1.15,2013-02-15 04:15:00,
2013-02-14 22:21:00,25.0,17.2,30.05,NW,316,3.0,9.0,72,0.00,,,0.00,Wunderground v.1.15,2013-02-15 04:21:00,
2013-02-14 22:27:00,24.9,16.8,30.05,WNW,289,4.0,9.0,71,0.00,,,0.00,Wunderground v.1.15,2013-02-15 04:27:00,
2013-02-14 22:33:00,24.8,15.4,30.05,NW,323,4.0,10.0,67,0.00,,,0.00,Wunderground v.1.15,2013-02-15 04:33:00,
2013-02-14 22:39:00,24.6,14.5,30.05,NNW,339,5.0,9.0,65,0.00,,,0.00,Wunderground v.1.15,2013-02-15 04:39:00,
2013-02-14 22:45:00,24.5,14.1,30.06,WNW,300,5.0,9.0,64,0.00,,,0.00,Wunderground v.1.15,2013-02-15 04:45:00,
2013-02-14 22:51:00,24.4,13.6,30.06,NNW,342,5.0,9.0,63,0.00,,,0.00,Wunderground v.1.15,2013-02-15 04:51:00,
2013-02-14 22:57:00,24.2,14.1,30.06,NNW,336,5.0,9.0,65,0.00,,,0.00,Wunderground v.1.15,2013-02-15 04:57:00,
2013-02-14 23:01:00,24.2,13.8,30.06,NW,319,4.0,9.0,64,0.00,,,0.00,Wunderground v.1.15,2013-02-15 05:01:00,
2013-02-14 23:05:00,24.2,13.4,30.06,NW,310,5.0,9.0,63,0.00,,,0.00,Wunderground v.1.15,2013-02-15 05:05:00,
2013-02-14 23:09:00,24.1,13.7,30.07,NW,308,5.0,5.0,64,0.00,,,0.00,Wunderground v.1.15,2013-02-15 05:09:00,
2013-02-14 23:15:00,24.0,12.9,30.07,NW,314,5.0,9.0,62,0.00,,,0.00,Wunderground v.1.15,2013-02-15 05:15:00,
2013-02-14 23:21:00,24.0,12.9,30.07,NW,309,5.0,9.0,62,0.00,,,0.00,Wunderground v.1.15,2013-02-15 05:21:00,
2013-02-14 23:27:00,23.9,13.1,30.07,NW,307,5.0,9.0,63,0.00,,,0.00,Wunderground v.1.15,2013-02-15 05:27:00,
2013-02-14 23:33:00,23.8,13.7,30.07,WNW,293,5.0,9.0,65,0.00,,,0.00,Wunderground v.1.15,2013-02-15 05:33:00,
2013-02-14 23:39:00,23.7,13.3,30.08,NW,321,5.0,9.0,64,0.00,,,0.00,Wunderground v.1.15,2013-02-15 05:39:00,
2013-02-14 23:45:00,23.6,12.5,30.08,NNW,333,5.0,9.0,62,0.00,,,0.00,Wunderground v.1.15,2013-02-15 05:45:00,
2013-02-14 23:51:00,23.6,12.5,30.08,NW,321,6.0,9.0,62,0.00,,,0.00,Wunderground v.1.15,2013-02-15 05:51:00,
2013-02-14 23:57:00,23.4,12.3,30.08,NNW,328,5.0,9.0,62,0.00,,,0.00,Wunderground v.1.15,2013-02-15 05:57:00,